User: anonymous   Login
Location: Aufkirchen
(47.9603°N, 11.3653°E)
Time: 13:10:50
(UTC+01:00)
Language:

NOAA 18 - Orbit

View from above orbital plane
View from above orbital plane
View from above satellite
View from above satellite

Ground track
Ground track

The orbit data is extracted from the following two-line orbital elements,

1 28654U 05018A   21016.15931770  .00000099  00000-0  78025-4 0  9996
2 28654  99.0164  80.2737 0014005 355.6807   4.4241 14.12573314807031
Epoch (UTC): 16 January 2021 03:49:25
Eccentricity: 0.0014005
inclination: 99.0164°
perigee height: 840 km
apogee height: 861 km
right ascension of ascending node: 80.2737°
argument of perigee: 355.6807°
revolutions per day: 14.12573314
mean anomaly at epoch: 4.4241°
orbit number at epoch: 80703

The dashed part of the orbit path shows where the satellite is in the earth's shadow,  

DLR